Location: Ferchesar
(52.6477°N, 12.4298°E)
Time: 16:50:30
(UTC+01:00)

Envisat - Pass Details

Date: 08 October 2022
Orbit: 763 x 765 km, 98.2° (Epoch: 30 November)

Event Time Altitude Azimuth Distance (km) Brightness Sun altitude
Rises 04:29:54 0° 23° (NNE) 3,247 7.0 -26.4°
Reaches altitude 10° 04:32:41 10° 38° (NE) 2,315 6.3 -26.0°
Maximum altitude 04:36:43 23° 90° (E) 1,585 5.2 -25.4°
Drops below altitude 10° 04:40:43 10° 143° (SE) 2,300 5.6 -24.9°
Sets 04:43:28 0° 157° (SSE) 3,220 6.2 -24.5°
